TimeCDT,TemperatureF,Dew PointF,Humidity,Sea Level PressureIn,VisibilityMPH,Wind Direction,Wind SpeedMPH,Gust SpeedMPH,PrecipitationIn,Events,Conditions,WindDirDegrees,DateUTC
12:56 AM,62.1,59.0,90,29.83,-9999.0,Calm,Calm,-,N/A,,Unknown,0,2013-06-12 05:56:00
1:56 AM,61.0,57.0,87,29.83,-9999.0,Calm,Calm,-,N/A,,Unknown,0,2013-06-12 06:56:00
2:56 AM,60.1,59.0,96,29.83,-9999.0,Calm,Calm,-,N/A,,Unknown,0,2013-06-12 07:56:00
3:56 AM,61.0,57.0,87,29.79,-9999.0,NNE,6.9,-,N/A,,Unknown,20,2013-06-12 08:56:00
4:56 AM,61.0,55.9,83,29.81,-9999.0,Calm,Calm,-,N/A,,Unknown,0,2013-06-12 09:56:00
5:56 AM,61.0,53.1,75,29.89,-9999.0,West,5.8,-,N/A,,Unknown,260,2013-06-12 10:56:00
6:56 AM,59.0,54.0,83,29.81,-9999.0,East,11.5,18.4,0.04,,Unknown,100,2013-06-12 11:56:00
7:56 AM,61.0,54.0,78,29.77,-9999.0,SW,3.5,-,0.04,,Unknown,230,2013-06-12 12:56:00
8:56 AM,64.0,55.9,75,29.82,-9999.0,SW,4.6,-,N/A,,Unknown,230,2013-06-12 13:56:00
9:56 AM,66.9,55.0,66,29.86,-9999.0,NW,10.4,-,N/A,,Unknown,310,2013-06-12 14:56:00
10:56 AM,63.0,55.9,78,29.89,-9999.0,NNW,12.7,-,N/A,,Unknown,340,2013-06-12 15:56:00
11:56 AM,63.0,57.0,81,29.90,-9999.0,North,12.7,-,N/A,,Unknown,350,2013-06-12 16:56:00
12:56 PM,64.9,57.9,78,29.91,-9999.0,North,12.7,-,N/A,,Unknown,350,2013-06-12 17:56:00
1:56 PM,71.1,55.9,59,29.91,-9999.0,North,18.4,-,N/A,,Unknown,10,2013-06-12 18:56:00
2:56 PM,73.0,57.0,57,29.91,-9999.0,North,20.7,27.6,N/A,,Unknown,360,2013-06-12 19:56:00
3:56 PM,73.0,55.0,53,29.92,-9999.0,North,24.2,29.9,N/A,,Unknown,10,2013-06-12 20:56:00
4:56 PM,71.1,52.0,51,29.94,-9999.0,North,20.7,-,N/A,,Unknown,360,2013-06-12 21:56:00
5:56 PM,69.1,54.0,58,29.94,-9999.0,North,18.4,-,N/A,,Unknown,10,2013-06-12 22:56:00
6:56 PM,69.1,54.0,58,29.94,-9999.0,North,15.0,-,N/A,,Unknown,360,2013-06-12 23:56:00
7:56 PM,69.1,52.0,54,29.97,-9999.0,North,13.8,-,N/A,,Unknown,360,2013-06-13 00:56:00
8:56 PM,66.9,54.0,63,29.98,-9999.0,North,9.2,-,N/A,,Unknown,350,2013-06-13 01:56:00
9:56 PM,62.1,53.1,72,30.01,-9999.0,NNW,10.4,-,N/A,,Unknown,330,2013-06-13 02:56:00
10:56 PM,59.0,51.1,75,30.04,-9999.0,NNW,8.1,-,N/A,,Unknown,340,2013-06-13 03:56:00
11:56 PM,55.9,50.0,80,30.05,-9999.0,NW,6.9,-,N/A,,Unknown,320,2013-06-13 04:56:00